CW9825 Weather Reports


time (UTC)temp
F
wind
direction
speed
knots
gust
knots
rain 1hr
in
rain 24hr
in
rain mn
in
humidity
%
barometer
mb
20260906201024 81 138 6.1 13.0 0.00 0.00 0.00 83 1014.3
20260906200526 81 198 6.1 15.6 0.00 0.00 0.00 82 1014.2
20260906200024 81 139 5.2 14.8 0.00 0.00 0.00 82 1014.3
20260906195523 81 179 7.0 14.8 0.00 0.00 0.00 82 1014.2
20260906195024 81 146 6.1 12.2 0.00 0.00 0.00 82 1014.2
20260906194524 81 131 5.2 13.0 0.00 0.00 0.00 82 1014.1
20260906194023 82 182 6.1 12.2 0.00 0.00 0.00 81 1014.0
20260906193525 82 182 5.2 12.2 0.00 0.00 0.00 81 1013.9
20260906193025 82 169 7.0 16.5 0.00 0.00 0.00 80 1014.0
20260906192521 82 175 5.2 16.5 0.00 0.00 0.00 80 1014.2
20260906192022 83 154 7.0 13.0 0.00 0.00 0.00 79 1014.3
20260906191522 83 193 5.2 14.8 0.00 0.00 0.00 79 1014.2
20260906191021 83 202 7.0 14.8 0.00 0.00 0.00 78 1014.3
20260906190523 84 138 7.0 13.9 0.00 0.00 0.00 78 1014.2
20260906190021 84 194 7.8 13.9 0.00 0.00 0.00 77 1014.3
20260906185521 85 192 6.1 13.9 0.00 0.00 0.00 77 1014.2
20260906185024 85 165 7.0 17.4 0.00 0.00 0.00 75 1014.4
20260906184522 86 194 4.3 17.4 0.00 0.00 0.00 75 1014.4
20260906184026 86 169 7.8 15.6 0.00 0.00 0.00 75 1014.4
20260906183519 86 155 5.2 15.6 0.00 0.00 0.00 75 1014.2
20260906183020 85 213 5.2 13.9 0.00 0.00 0.00 75 1014.3
20260906182518 86 171 6.1 13.0 0.00 0.00 0.00 75 1014.2
20260906182017 85 101 4.3 13.9 0.00 0.00 0.00 77 1014.2
20260906181517 85 146 7.8 13.9 0.00 0.00 0.00 76 1014.2
20260906181015 85 186 6.1 13.0 0.00 0.00 0.00 77 1014.3
20260906180516 84 140 6.1 13.0 0.00 0.00 0.00 78 1014.2
20260906180014 84 167 7.8 13.0 0.00 0.00 0.00 78 1014.3
20260906175512 83 150 5.2 13.9 0.00 0.00 0.00 79 1014.3
20260906175010 83 148 3.5 13.0 0.00 0.00 0.00 80 1014.4
20260906174511 83 130 5.2 13.0 0.00 0.00 0.00 79 1014.3
20260906174112 83 149 4.3 12.2 0.00 0.00 0.00 80 1014.4
20260906173507 82 171 4.3 11.3 0.00 0.00 0.00 81 1014.5
20260906173007 82 128 3.5 10.4 0.00 0.00 0.00 80 1014.6
20260906172507 82 159 6.1 12.2 0.00 0.00 0.00 80 1014.8
20260906172005 82 202 3.5 12.2 0.00 0.00 0.00 80 1014.9
20260906171506 82 157 6.1 10.4 0.00 0.00 0.00 80 1015.0
20260906171005 82 136 4.3 10.4 0.00 0.00 0.00 80 1015.0
20260906170507 82 157 3.5 10.4 0.00 0.00 0.00 80 1015.0
20260906170005 82 131 4.3 13.0 0.00 0.00 0.00 79 1015.2
20260906165505 82 152 6.1 13.0 0.00 0.00 0.00 78 1015.3
20260906165008 83 180 5.2 9.6 0.00 0.00 0.00 79 1015.3
20260906164503 82 173 5.2 10.4 0.00 0.00 0.00 79 1015.5
20260906164002 82 144 6.1 10.4 0.00 0.00 0.00 79 1015.5
20260906163502 82 167 4.3 11.3 0.00 0.00 0.00 80 1015.5
20260906163001 82 162 4.3 11.3 0.00 0.00 0.00 80 1015.6
20260906162600 82 130 5.2 12.2 0.00 0.00 0.00 80 1015.5
20260906162059 81 161 6.1 12.2 0.00 0.00 0.00 81 1015.5
20260906161600 81 42 5.2 13.9 0.00 0.00 0.00 82 1015.5
20260906161058 81 144 7.0 13.9 0.00 0.00 0.00 81 1015.5
20260906160559 81 171 6.1 13.0 0.00 0.00 0.00 81 1015.5
20260906160059 81 161 3.5 10.4 0.00 0.00 0.00 81 1015.4
20260906155558 81 98 6.1 10.4 0.00 0.00 0.00 80 1015.5
20260906155057 81 199 3.5 10.4 0.00 0.00 0.00 82 1015.5
20260906154557 81 73 4.3 10.4 0.00 0.00 0.00 82 1015.5
20260906154056 80 118 4.3 10.4 0.00 0.00 0.00 82 1015.4
20260906153556 80 139 3.5 12.2 0.00 0.00 0.00 83 1015.5
20260906153112 80 101 3.5 12.2 0.00 0.00 0.00 83 1015.5
20260906152552 79 261 2.6 9.6 0.00 0.00 0.00 84 1015.4
20260906152051 78 119 3.5 10.4 0.00 0.00 0.00 86 1015.6
20260906151559 78 92 3.5 10.4 0.00 0.00 0.00 86 1015.5
20260906151049 77 98 2.6 9.6 0.00 0.00 0.00 86 1015.5
20260906150548 77 168 4.3 9.6 0.00 0.00 0.00 86 1015.6
20260906150048 77 69 3.5 9.6 0.00 0.00 0.00 87 1015.6
20260906145546 76 82 1.7 9.6 0.00 0.00 0.00 88 1015.6
20260906145045 76 132 5.2 10.4 0.00 0.00 0.00 88 1015.6
20260906144545 76 148 3.5 7.8 0.00 0.00 0.00 88 1015.6
20260906144043 75 148 3.5 11.3 0.00 0.00 0.00 88 1015.6
20260906143541 75 133 4.3 10.4 0.00 0.00 0.00 88 1015.8
20260906143046 75 132 3.5 9.6 0.00 0.00 0.00 89 1015.9
20260906142539 75 130 4.3 9.6 0.00 0.00 0.00 89 1015.8
20260906142038 75 153 2.6 9.6 0.00 0.00 0.00 89 1015.9
20260906141538 75 146 4.3 9.6 0.00 0.00 0.00 89 1015.8
20260906141034 75 149 1.7 7.8 0.00 0.00 0.00 89 1015.8
20260906140535 75 140 3.5 8.7 0.00 0.00 0.00 89 1016.0
20260906140035 75 124 1.7 8.7 0.00 0.00 0.00 89 1016.0
20260906135533 75 98 2.6 7.8 0.00 0.00 0.00 89 1016.0
20260906135031 75 103 2.6 7.0 0.00 0.00 0.00 89 1016.0
20260906134529 75 63 2.6 7.0 0.00 0.00 0.00 90 1016.1
20260906134028 74 119 2.6 7.0 0.00 0.00 0.00 90 1016.1
20260906133530 74 129 2.6 10.4 0.00 0.00 0.00 91 1016.1
20260906133028 74 184 1.7 10.4 0.00 0.00 0.00 91 1016.1
20260906132524 73 167 2.6 7.8 0.00 0.00 0.00 91 1016.0
20260906132024 73 150 3.5 9.6 0.00 0.00 0.00 92 1016.1
20260906131524 73 160 3.5 9.6 0.00 0.00 0.00 92 1016.0
20260906131020 72 144 1.7 7.8 0.00 0.00 0.00 92 1016.0
20260906130519 72 142 2.6 7.0 0.00 0.00 0.00 92 1016.0
20260906130018 72 150 2.6 6.1 0.00 0.00 0.00 93 1016.0
20260906125518 71 165 0.9 5.2 0.00 0.00 0.00 93 1015.8
20260906125020 71 141 1.7 6.1 0.00 0.00 0.00 93 1015.7
20260906124515 71 144 2.6 6.1 0.00 0.00 0.00 93 1015.7
20260906124016 71 146 1.7 8.7 0.00 0.00 0.00 93 1015.5
20260906123514 71 154 4.3 8.7 0.00 0.00 0.00 93 1015.6
20260906123029 71 180 0.9 7.0 0.00 0.00 0.00 93 1015.5
20260906122514 70 90 1.7 5.2 0.00 0.00 0.00 93 1015.5
20260906122013 70 118 0.9 5.2 0.00 0.00 0.00 93 1015.6
20260906121514 70 101 1.7 3.5 0.00 0.00 0.00 93 1015.6
20260906121012 70 98 0.9 3.5 0.00 0.00 0.00 93 1015.6
20260906120513 70 119 0.9 6.1 0.00 0.00 0.00 93 1015.6
20260906120011 70 138 1.7 6.1 0.00 0.00 0.00 93 1015.6
20260906115514 70 166 2.6 6.1 0.00 0.00 0.00 93 1015.6
20260906115012 70 128 0.9 6.1 0.00 0.00 0.00 93 1015.7
20260906114509 70 155 1.7 4.3 0.00 0.00 0.00 93 1015.7
20260906114009 70 140 0.9 5.2 0.00 0.00 0.00 93 1015.8
20260906113509 70 118 1.7 4.3 0.00 0.00 0.00 93 1015.6
20260906113009 70 154 0.9 5.2 0.00 0.00 0.00 92 1015.6
20260906112509 70 155 0.9 5.2 0.00 0.00 0.00 92 1015.5
20260906112009 70 150 1.7 4.3 0.00 0.00 0.00 92 1015.4
20260906111507 70 148 1.7 6.1 0.00 0.00 0.00 92 1015.4
20260906111008 70 134 3.5 7.8 0.00 0.00 0.00 92 1015.6
20260906110508 70 130 2.6 7.8 0.00 0.00 0.00 92 1015.7
20260906110006 70 149 1.7 7.0 0.00 0.00 0.00 92 1015.6
20260906105507 70 148 2.6 7.0 0.00 0.00 0.00 92 1015.5
20260906105007 70 152 2.6 7.8 0.00 0.00 0.00 92 1015.5
20260906104505 70 140 2.6 7.8 0.00 0.00 0.00 92 1015.4
20260906104006 70 134 2.6 7.8 0.00 0.00 0.00 92 1015.4
20260906103505 70 134 1.7 6.1 0.00 0.00 0.00 92 1015.3
20260906103005 70 148 1.7 6.1 0.00 0.00 0.00 92 1015.3
20260906102505 70 144 2.6 6.1 0.00 0.00 0.00 92 1015.3
20260906102005 70 147 2.6 6.1 0.00 0.00 0.00 92 1015.4
20260906101512 70 142 1.7 5.2 0.00 0.00 0.00 92 1015.3
20260906101005 70 139 0.9 4.3 0.00 0.00 0.00 92 1015.4
20260906100508 70 162 0.0 2.6 0.00 0.00 0.00 92 1015.4
20260906100005 70 148 0.0 4.3 0.00 0.00 0.00 92 1015.4
20260906095504 70 148 0.9 3.5 0.00 0.00 0.00 92 1015.2
20260906095004 70 144 0.9 4.3 0.00 0.00 0.00 92 1015.2
20260906094503 70 148 0.9 4.3 0.00 0.00 0.00 92 1015.3
20260906094002 70 101 0.9 2.6 0.00 0.00 0.00 92 1015.3
20260906093506 70 94 0.9 2.6 0.00 0.00 0.00 92 1015.4
20260906093002 70 107 0.9 3.5 0.00 0.00 0.00 92 1015.3
20260906092503 70 107 0.0 3.5 0.00 0.00 0.00 92 1015.3
20260906092002 70 109 0.9 3.5 0.00 0.00 0.00 92 1015.3
20260906091502 70 60 0.9 2.6 0.00 0.00 0.00 92 1015.3
20260906091002 70 82 0.9 5.2 0.00 0.00 0.00 92 1015.5
20260906090501 70 82 1.7 5.2 0.00 0.00 0.00 92 1015.5
20260906090003 70 111 1.7 3.5 0.00 0.00 0.00 92 1015.4
20260906085502 70 94 1.7 3.5 0.00 0.00 0.00 91 1015.4
20260906085100 70 64 0.9 2.6 0.00 0.00 0.00 91 1015.4
20260906084605 71 76 0.9 2.6 0.00 0.00 0.00 90 1015.4
20260906084057 71 51 0.9 2.6 0.00 0.00 0.00 90 1015.3
20260906083557 71 150 0.0 4.3 0.00 0.00 0.00 90 1015.2
20260906083057 71 150 0.9 4.3 0.00 0.00 0.00 89 1015.1
20260906082556 71 115 0.9 3.5 0.00 0.00 0.00 89 1015.1
20260906082056 71 113 0.9 3.5 0.00 0.00 0.00 89 1015.1
20260906081558 71 149 0.9 3.5 0.00 0.00 0.00 89 1015.1
20260906081055 71 53 0.9 3.5 0.00 0.00 0.00 89 1015.1
20260906080555 72 138 0.9 2.6 0.00 0.00 0.00 89 1015.0
20260906080112 72 152 0.9 6.1 0.00 0.00 0.00 88 1015.1
20260906075554 72 149 2.6 6.1 0.00 0.00 0.00 88 1015.0
20260906075054 72 153 0.9 4.3 0.00 0.00 0.00 88 1015.0
20260906074606 72 135 0.9 3.5 0.00 0.00 0.00 88 1014.9
20260906074053 72 128 1.7 5.2 0.00 0.00 0.00 88 1014.9
20260906073552 72 154 0.9 6.1 0.00 0.00 0.00 87 1015.0
20260906073105 72 148 1.7 6.1 0.00 0.00 0.00 87 1015.0
20260906072551 73 143 0.9 6.1 0.00 0.00 0.00 87 1015.1
20260906072049 73 161 1.7 6.1 0.00 0.00 0.00 87 1015.1
20260906071549 73 173 1.7 6.1 0.00 0.00 0.00 87 1015.1
20260906071049 73 143 1.7 5.2 0.00 0.00 0.00 86 1015.2
20260906070549 73 153 1.7 6.1 0.00 0.00 0.00 86 1015.2
20260906070049 73 161 2.6 7.8 0.00 0.00 0.00 86 1015.1
20260906065548 73 185 3.5 7.8 0.00 0.00 0.00 86 1015.0
20260906065047 73 150 1.7 7.8 0.00 0.00 0.00 86 1014.9
20260906064547 74 181 2.6 7.8 0.00 0.00 0.00 86 1015.0
20260906064046 74 122 3.5 8.7 0.00 0.00 0.00 86 1015.1
20260906063545 74 151 3.5 8.7 0.00 0.00 0.00 85 1015.1
20260906063049 74 155 1.7 10.4 0.00 0.00 0.00 85 1015.1
20260906062545 74 154 2.6 8.7 0.00 0.00 0.00 85 1015.2
20260906062045 74 166 2.6 8.7 0.00 0.00 0.00 85 1015.1
20260906061545 74 185 2.6 7.0 0.00 0.00 0.00 86 1015.1
20260906061047 74 159 2.6 7.8 0.00 0.00 0.00 86 1015.1
20260906060544 74 127 3.5 7.8 0.00 0.00 0.00 86 1015.1
20260906060043 74 95 2.6 7.8 0.00 0.00 0.00 86 1015.0
20260906055543 74 150 1.7 7.8 0.00 0.00 0.00 86 1015.1
20260906055044 74 138 2.6 8.7 0.00 0.00 0.00 86 1015.3
20260906054544 74 94 1.7 8.7 0.00 0.00 0.00 86 1015.2
20260906054042 74 95 1.7 7.8 0.00 0.00 0.00 87 1015.1
20260906053541 73 117 3.5 7.8 0.00 0.00 0.00 87 1015.1
20260906053041 73 93 2.6 6.1 0.00 0.00 0.00 87 1015.1
20260906052541 73 82 2.6 7.0 0.00 0.00 0.00 87 1015.1
20260906052040 73 120 2.6 7.0 0.00 0.00 0.00 87 1015.2
20260906051553 74 104 1.7 5.2 0.00 0.00 0.00 87 1015.3
20260906051038 74 85 1.7 6.1 0.00 0.00 0.00 87 1015.4
20260906050537 74 60 2.6 7.0 0.00 0.00 0.00 87 1015.3
20260906050041 74 146 1.7 7.0 0.00 0.00 0.00 86 1015.4
20260906045537 74 96 1.7 6.1 0.00 0.00 0.00 86 1015.5
20260906045036 74 115 0.9 7.0 0.00 0.00 0.00 86 1015.5
20260906044544 74 116 2.6 7.0 0.00 0.00 0.00 86 1015.4
20260906044037 74 82 1.7 6.1 0.00 0.00 0.00 86 1015.4
20260906043537 74 45 1.7 7.8 0.00 0.00 0.00 86 1015.3
20260906043046 75 149 2.6 7.8 0.00 0.00 0.00 86 1015.2
20260906042535 75 102 2.6 7.8 0.00 0.00 0.00 86 1015.4
20260906042035 75 98 3.5 8.7 0.00 0.00 0.00 86 1015.5
20260906041535 75 96 4.3 8.7 0.00 0.00 0.00 85 1015.5
20260906041036 75 121 2.6 6.1 0.00 0.00 0.00 85 1015.6
20260906040534 75 94 2.6 9.6 0.00 0.00 0.00 85 1015.6
20260906040037 75 81 3.5 9.6 0.00 0.00 0.00 85 1015.4
20260906035539 75 92 2.6 7.8 0.00 0.00 0.00 84 1015.3
20260906035034 76 94 3.5 7.8 0.00 0.00 0.00 84 1015.5
20260906034538 76 90 0.9 5.2 0.00 0.00 0.00 84 1015.6
20260906034034 76 78 0.9 5.2 0.00 0.00 0.00 84 1015.7
20260906033534 76 89 1.7 7.0 0.00 0.00 0.00 84 1015.8
20260906033033 76 49 1.7 7.0 0.00 0.00 0.00 84 1015.8
20260906032534 76 91 2.6 5.2 0.00 0.00 0.00 84 1015.7
20260906032033 76 98 0.9 5.2 0.00 0.00 0.00 84 1015.7
20260906031539 76 86 1.7 5.2 0.00 0.00 0.00 84 1015.8
20260906031033 76 63 1.7 5.2 0.00 0.00 0.00 84 1015.8
20260906030535 76 93 2.6 5.2 0.00 0.00 0.00 84 1016.0
20260906030033 76 67 0.9 5.2 0.00 0.00 0.00 84 1015.9
20260906025532 76 80 1.7 5.2 0.00 0.00 0.00 84 1015.9
20260906025032 76 95 0.9 3.5 0.00 0.00 0.00 83 1016.0
20260906024531 76 78 0.9 3.5 0.00 0.00 0.00 83 1015.9
20260906024031 76 123 0.0 4.3 0.00 0.00 0.00 83 1015.8
20260906023531 76 90 0.9 4.3 0.00 0.00 0.00 83 1015.6
20260906023031 76 142 1.7 5.2 0.00 0.00 0.00 83 1015.4
20260906022532 76 125 0.9 3.5 0.00 0.00 0.00 83 1015.3
20260906022030 76 123 0.9 3.5 0.00 0.00 0.00 82 1015.3
20260906021530 76 61 0.9 4.3 0.00 0.00 0.00 82 1015.3
20260906021030 77 109 1.7 4.3 0.00 0.00 0.00 81 1015.2
20260906020530 77 125 1.7 5.2 0.00 0.00 0.00 81 1015.1
20260906020030 77 153 1.7 4.3 0.00 0.00 0.00 81 1014.9
20260906015530 77 147 1.7 6.1 0.00 0.00 0.00 80 1014.8
20260906015029 77 85 2.6 7.0 0.00 0.00 0.00 80 1014.7
20260906014530 77 118 2.6 7.0 0.00 0.00 0.00 80 1014.7
20260906014028 78 111 2.6 6.1 0.00 0.00 0.00 79 1014.8
20260906013528 78 119 1.7 6.1 0.00 0.00 0.00 78 1014.8
20260906013042 78 102 2.6 7.0 0.00 0.00 0.00 78 1014.7
20260906012529 78 138 3.5 7.0 0.00 0.00 0.00 78 1014.8
20260906012028 78 89 1.7 5.2 0.00 0.00 0.00 77 1014.7
20260906011528 79 146 1.7 5.2 0.00 0.00 0.00 76 1014.6
20260906011030 79 113 2.6 5.2 0.00 0.00 0.00 76 1014.6
20260906010528 79 115 2.6 6.1 0.00 0.00 0.00 75 1014.6
20260906010030 79 125 1.7 6.1 0.00 0.00 0.00 75 1014.7
20260906005527 80 142 0.9 5.2 0.00 0.00 0.00 74 1014.8
20260906005027 80 101 0.9 5.2 0.00 0.00 0.00 73 1014.9
20260906004527 80 62 0.9 6.1 0.00 0.00 0.00 73 1014.9
20260906004026 80 137 0.9 8.7 0.00 0.00 0.00 72 1014.9
20260906003526 81 159 3.5 8.7 0.00 0.00 0.00 71 1014.7
20260906003027 81 136 3.5 8.7 0.00 0.00 0.00 71 1014.5
20260906002526 81 164 4.3 10.4 0.00 0.00 0.00 71 1014.6
20260906002026 81 143 4.3 10.4 0.00 0.00 0.00 70 1014.6
20260906001527 82 162 3.5 10.4 0.00 0.00 0.00 70 1014.6
20260906001026 82 139 3.5 8.7 0.00 0.00 0.00 69 1014.6
20260906000526 82 167 5.2 9.6 0.00 0.00 0.00 69 1014.6
20260906000026 83 165 3.5 13.0 0.00 0.00 0.00 68 1014.4
20260905235526 83 85 4.3 13.0 0.00 0.00 0.00 68 1014.1
20260905235026 83 141 5.2 12.2 0.00 0.00 0.00 68 1013.9
20260905234524 83 103 3.5 12.2 0.00 0.00 0.00 68 1013.7
20260905234025 84 64 4.3 12.2 0.00 0.00 0.00 67 1013.5
20260905233526 84 113 5.2 12.2 0.00 0.00 0.00 67 1013.5
20260905233026 84 53 5.2 10.4 0.00 0.00 0.00 67 1013.4
20260905232524 84 101 4.3 11.3 0.00 0.00 0.00 67 1013.5
20260905232024 84 115 4.3 11.3 0.00 0.00 0.00 67 1013.4
20260905231528 84 81 5.2 10.4 0.00 0.00 0.00 66 1013.3
20260905231025 84 62 4.3 10.4 0.00 0.00 0.00 66 1013.3
20260905230525 84 50 4.3 12.2 0.00 0.00 0.00 65 1013.3
20260905230026 84 78 6.1 12.2 0.00 0.00 0.00 65 1013.3
20260905225524 84 42 3.5 10.4 0.00 0.00 0.00 64 1013.2
20260905225023 84 93 4.3 10.4 0.00 0.00 0.00 64 1013.2
20260905224523 84 32 4.3 12.2 0.00 0.00 0.00 64 1013.2
20260905224023 85 56 2.6 12.2 0.00 0.00 0.00 63 1013.2
20260905223522 85 88 3.5 12.2 0.00 0.00 0.00 63 1013.1
20260905223022 85 88 4.3 11.3 0.00 0.00 0.00 63 1013.2
20260905222525 85 107 3.5 8.7 0.00 0.00 0.00 66 1013.1
20260905222022 84 115 4.3 12.2 0.00 0.00 0.00 66 1013.1
20260905221520 84 88 4.3 12.2 0.00 0.00 0.00 66 1013.1
20260905221020 84 83 7.0 12.2 0.00 0.00 0.00 66 1013.1
20260905220519 84 76 6.1 12.2 0.00 0.00 0.00 66 1013.2
20260905220018 84 51 6.1 13.0 0.00 0.00 0.00 66 1013.2
20260905215519 84 123 7.8 13.0 0.00 0.00 0.00 66 1013.3
20260905215018 84 91 6.1 12.2 0.00 0.00 0.00 66 1013.3
20260905214517 84 57 6.1 13.9 0.00 0.00 0.00 66 1013.4
20260905214016 84 97 7.0 12.2 0.00 0.00 0.00 66 1013.5
20260905213520 84 86 7.0 12.2 0.00 0.00 0.00 66 1013.5
20260905213018 84 96 7.0 13.9 0.00 0.00 0.00 65 1013.6
20260905212515 84 101 7.8 13.9 0.00 0.00 0.00 66 1013.7
20260905212014 84 150 7.0 13.9 0.00 0.00 0.00 66 1013.7
20260905211516 84 71 7.0 11.3 0.00 0.00 0.00 67 1013.8
20260905211014 83 84 4.3 12.2 0.00 0.00 0.00 67 1013.8
20260905210514 83 82 7.8 13.0 0.00 0.00 0.00 67 1013.9
20260905210017 83 81 5.2 15.6 0.00 0.00 0.00 68 1014.1
20260905205514 83 73 7.0 15.6 0.00 0.00 0.00 67 1014.0
20260905205015 83 61 6.1 13.0 0.00 0.00 0.00 67 1014.0
20260905204512 82 88 5.2 13.9 0.00 0.00 0.00 67 1014.0
20260905204013 83 83 7.8 15.6 0.00 0.00 0.00 67 1014.2
20260905203512 83 56 8.7 15.6 0.00 0.00 0.00 66 1014.3
20260905203012 83 74 7.8 11.3 0.00 0.00 0.00 67 1014.3
20260905202511 82 63 6.1 15.6 0.00 0.00 0.00 68 1014.3
20260905202013 82 157 8.7 16.5 0.00 0.00 0.00 69 1014.4
20260905201512 82 100 9.6 16.5 0.00 0.00 0.00 69 1014.7